• In India
  • List of Countries
  • For 7 days
  • Water Temperature
  • Satellite Maps
  • Weather Map
  • Weather Widgets
  • user-avatar
    Login

    Hourly Weather Popasne

    Today, 17 October, Wednesday

    Time Temperature Precipitation Wind Pressure Humidity
    00:00 +16°C° 0 mm 1 mps 752 mmHg 58%
    01:00 +15°C° 0 mm 1 mps 752 mmHg 60%
    02:00 +15°C° 0 mm 1 mps 751 mmHg 62%
    03:00 +15°C° 0 mm 1 mps 751 mmHg 64%
    04:00 +14°C° 0 mm 1 mps 751 mmHg 65%
    05:00 +14°C° 0 mm 1 mps 751 mmHg 67%
    06:00 +14°C° 0 mm 1 mps 751 mmHg 69%
    07:00 +15°C° 0 mm 1 mps 751 mmHg 65%
    08:00 +16°C° 0 mm 1 mps 751 mmHg 61%
    09:00 +17°C° 0 mm 2 mps 751 mmHg 56%
    10:00 +19°C° 0 mm 2 mps 751 mmHg 51%
    11:00 +21°C° 0 mm 2 mps 751 mmHg 46%
    12:00 +22°C° 0 mm 3 mps 751 mmHg 40%
    13:00 +24°C° 0 mm 3 mps 751 mmHg 38%
    14:00 +24°C° 0 mm 3 mps 751 mmHg 37%
    15:00 +25°C° 0 mm 3 mps 750 mmHg 35%
    16:00 +22°C° 0 mm 3 mps 750 mmHg 39%
    17:00 +21°C° 0 mm 2 mps 750 mmHg 43%
    18:00 +20°C° 0 mm 2 mps 750 mmHg 46%
    19:00 +19°C° 0 mm 2 mps 750 mmHg 48%
    20:00 +18°C° 0 mm 2 mps 750 mmHg 50%
    21:00 +17°C° 0 mm 2 mps 750 mmHg 52%
    22:00 +17°C° 0 mm 2 mps 750 mmHg 53%
    23:00 +16°C° 0 mm 2 mps 750 mmHg 54%

    Tomorrow, 18 October, Thursday

    Time Temperature Precipitation Wind Pressure Humidity
    00:00 +16°C° 0 mm 2 mps 750 mmHg 55%
    01:00 +15°C° 0 mm 2 mps 750 mmHg 56%
    02:00 +15°C° 0 mm 2 mps 750 mmHg 57%
    03:00 +15°C° 0 mm 2 mps 750 mmHg 58%
    04:00 +14°C° 0 mm 2 mps 749 mmHg 60%
    05:00 +14°C° 0 mm 2 mps 749 mmHg 61%
    06:00 +14°C° 0 mm 2 mps 749 mmHg 63%
    07:00 +15°C° 0 mm 2 mps 749 mmHg 60%
    08:00 +16°C° 0 mm 3 mps 749 mmHg 57%
    09:00 +17°C° 0 mm 3 mps 749 mmHg 54%
    10:00 +18°C° 0 mm 3 mps 749 mmHg 48%
    11:00 +20°C° 0 mm 3 mps 749 mmHg 43%
    12:00 +22°C° 0 mm 4 mps 749 mmHg 38%
    13:00 +23°C° 0 mm 4 mps 749 mmHg 36%
    14:00 +23°C° 0 mm 4 mps 748 mmHg 34%
    15:00 +25°C° 0 mm 4 mps 748 mmHg 33%
    16:00 +22°C° 0 mm 4 mps 748 mmHg 36%
    17:00 +21°C° 0 mm 3 mps 748 mmHg 40%
    18:00 +19°C° 0 mm 3 mps 747 mmHg 43%
    19:00 +18°C° 0 mm 3 mps 747 mmHg 45%
    20:00 +18°C° 0 mm 3 mps 747 mmHg 46%
    21:00 +17°C° 0 mm 3 mps 747 mmHg 48%
    22:00 +16°C° 0 mm 3 mps 747 mmHg 49%
    23:00 +16°C° 0 mm 3 mps 747 mmHg 51%

    Day after tomorrow, 19 October, Friday

    Time Temperature Precipitation Wind Pressure Humidity
    00:00 +14°C° 0 mm 3 mps 747 mmHg 53%
    01:00 +14°C° 0 mm 3 mps 747 mmHg 55%
    02:00 +13°C° 0 mm 3 mps 747 mmHg 57%
    03:00 +13°C° 0 mm 3 mps 747 mmHg 59%
    04:00 +12°C° 0 mm 3 mps 746 mmHg 60%
    05:00 +12°C° 0 mm 3 mps 746 mmHg 62%
    06:00 +11°C° 0 mm 3 mps 746 mmHg 63%
    07:00 +12°C° 0 mm 3 mps 746 mmHg 60%
    08:00 +13°C° 0 mm 4 mps 746 mmHg 58%
    09:00 +14°C° 0 mm 4 mps 746 mmHg 55%
    10:00 +17°C° 0 mm 4 mps 746 mmHg 50%
    11:00 +19°C° 0 mm 4 mps 746 mmHg 44%
    12:00 +21°C° 0 mm 4 mps 745 mmHg 39%
    13:00 +21°C° 0 mm 4 mps 745 mmHg 37%
    14:00 +22°C° 0 mm 4 mps 745 mmHg 36%
    15:00 +22°C° 0 mm 4 mps 744 mmHg 34%
    16:00 +21°C° 0 mm 4 mps 744 mmHg 37%
    17:00 +19°C° 0 mm 3 mps 744 mmHg 41%
    18:00 +18°C° 0 mm 3 mps 743 mmHg 45%
    19:00 +17°C° 0 mm 2 mps 743 mmHg 48%
    20:00 +17°C° 0 mm 2 mps 743 mmHg 51%
    21:00 +16°C° 0 mm 2 mps 743 mmHg 53%
    22:00 +16°C° 0 mm 2 mps 743 mmHg 56%
    23:00 +15°C° 0 mm 2 mps 743 mmHg 58%

    20 October, Saturday

    Time Temperature Precipitation Wind Pressure Humidity
    00:00 +15°C° 0 mm 2 mps 743 mmHg 61%
    01:00 +15°C° 0 mm 2 mps 743 mmHg 64%
    02:00 +14°C° 0 mm 2 mps 742 mmHg 67%
    03:00 +14°C° 0 mm 2 mps 742 mmHg 70%
    04:00 +13°C° 0 mm 1 mps 742 mmHg 72%
    05:00 +13°C° 0 mm 1 mps 742 mmHg 75%
    06:00 +13°C° 0 mm 1 mps 742 mmHg 78%
    07:00 +13°C° 0 mm 2 mps 742 mmHg 75%
    08:00 +14°C° 0 mm 2 mps 743 mmHg 73%
    09:00 +15°C° 0 mm 2 mps 743 mmHg 71%
    10:00 +16°C° 0 mm 2 mps 743 mmHg 67%
    11:00 +17°C° 0 mm 2 mps 743 mmHg 62%
    12:00 +18°C° 0 mm 2 mps 743 mmHg 58%
    13:00 +19°C° 0 mm 3 mps 743 mmHg 56%
    14:00 +20°C° 0 mm 3 mps 743 mmHg 54%
    15:00 +20°C° 0 mm 3 mps 743 mmHg 52%
    16:00 +19°C° 0 mm 3 mps 743 mmHg 58%
    17:00 +18°C° 0 mm 2 mps 743 mmHg 63%
    18:00 +17°C° 0 mm 2 mps 743 mmHg 68%
    19:00 +16°C° 0 mm 2 mps 743 mmHg 71%
    20:00 +15°C° 0 mm 2 mps 743 mmHg 75%
    21:00 +15°C° 0 mm 2 mps 743 mmHg 78%
    22:00 +14°C° 0 mm 2 mps 743 mmHg 80%
    23:00 +14°C° 0 mm 2 mps 743 mmHg 82%

    21 October, Sunday

    Time Temperature Precipitation Wind Pressure Humidity
    00:00 +14°C° 0 mm 2 mps 743 mmHg 84%
    01:00 +14°C° 0 mm 2 mps 743 mmHg 84%
    02:00 +13°C° 0 mm 2 mps 743 mmHg 84%
    03:00 +13°C° 0 mm 2 mps 743 mmHg 84%
    04:00 +13°C° 0 mm 2 mps 743 mmHg 85%
    05:00 +12°C° 0 mm 3 mps 743 mmHg 85%
    06:00 +12°C° 0 mm 3 mps 743 mmHg 85%
    07:00 +12°C° 0 mm 3 mps 743 mmHg 83%
    08:00 +12°C° 0 mm 3 mps 743 mmHg 81%
    09:00 +13°C° 0 mm 3 mps 743 mmHg 79%
    10:00 +14°C° 0 mm 3 mps 743 mmHg 73%
    11:00 +15°C° 0 mm 4 mps 743 mmHg 68%
    12:00 +18°C° 0 mm 4 mps 743 mmHg 62%
    13:00 +18°C° 0 mm 4 mps 743 mmHg 61%
    14:00 +18°C° 0 mm 4 mps 743 mmHg 60%
    15:00 +18°C° 0 mm 4 mps 743 mmHg 58%
    16:00 +17°C° 0 mm 4 mps 743 mmHg 59%
    17:00 +17°C° 0 mm 4 mps 743 mmHg 61%
    18:00 +15°C° 0 mm 4 mps 743 mmHg 62%
    19:00 +15°C° 0 mm 4 mps 743 mmHg 63%
    20:00 +14°C° 0 mm 4 mps 744 mmHg 65%
    21:00 +13°C° 0 mm 4 mps 744 mmHg 67%
    22:00 +13°C° 0 mm 4 mps 744 mmHg 69%
    23:00 +12°C° 0 mm 4 mps 744 mmHg 71%

    22 October, Monday

    Time Temperature Precipitation Wind Pressure Humidity
    00:00 +12°C° 0 mm 4 mps 744 mmHg 73%
    01:00 +11°C° 0 mm 4 mps 744 mmHg 73%
    02:00 +11°C° 0 mm 4 mps 744 mmHg 74%
    03:00 +10°C° 0 mm 4 mps 744 mmHg 75%
    04:00 +10°C° 0 mm 4 mps 744 mmHg 76%
    05:00 +10°C° 0 mm 4 mps 744 mmHg 77%
    06:00 +10°C° 0 mm 4 mps 744 mmHg 78%
    07:00 +10°C° 0 mm 4 mps 745 mmHg 76%
    08:00 +11°C° 0 mm 4 mps 745 mmHg 75%
    09:00 +11°C° 0 mm 4 mps 745 mmHg 73%
    10:00 +12°C° 0 mm 4 mps 745 mmHg 71%
    11:00 +13°C° 0 mm 4 mps 745 mmHg 70%
    12:00 +14°C° 0 mm 4 mps 745 mmHg 68%
    13:00 +14°C° 0 mm 3 mps 745 mmHg 67%
    14:00 +14°C° 0 mm 3 mps 745 mmHg 66%
    15:00 +16°C° 0 mm 3 mps 744 mmHg 66%
    16:00 +14°C° 0 mm 3 mps 745 mmHg 68%
    17:00 +15°C° 0 mm 2 mps 745 mmHg 70%
    18:00 +14°C° 0 mm 2 mps 745 mmHg 72%
    19:00 +14°C° 0 mm 2 mps 745 mmHg 73%
    20:00 +14°C° 0 mm 2 mps 745 mmHg 74%
    21:00 +14°C° 0 mm 1 mps 745 mmHg 75%
    22:00 +13°C° 0 mm 1 mps 745 mmHg 77%
    23:00 +13°C° 0 mm 1 mps 745 mmHg 78%
    Show more